Regional Weather Roundup
Issued by NWS Charleston, SC

Home | Current Version | Previous Version | Text Only | Print | Product List | Glossary On
Versions: 1 2 3 4 5 6 7 8 9 10 11 12 13 14 15 16 17 18 19 20 21 22 23 24 25 26 27 28 29 30 31 32 33 34 35 36 37 38 39 40 41 42 43 44 45 46 47 48 49 50
000
ASUS42 KCHS 301610
RWRCHS

REGIONAL WEATHER ROUNDUP
NATIONAL WEATHER SERVICE CHARLESTON SC
1200 PM EDT SAT AUG 30 2014

NOTE: "FAIR" INDICATES FEW OR NO CLOUDS BELOW 12,000 FEET WITH NO
SIGNIFICANT WEATHER AND/OR OBSTRUCTIONS TO VISIBILITY.

NOT ALL STATIONS ARE QUALITY CONTROLLED BY THE NATIONAL
WEATHER SERVICE. USE DATA WITH CAUTION...ESPECIALLY
DEWPOINT OBSERVATIONS.

SCZ027-030-031-034>040-042>050-301700-
...SOUTH CAROLINA...

CITY           SKY/WX    TMP DP  RH WIND       PRES   REMARKS
N CHARLESTON   PTSUNNY   87  72  60 SE7       30.19F HX  93
WATERFRONT PRK   N/A     84 N/A N/A E23         N/A
FORT JOHNSON   NOT AVBL
MOUNT PLEASANT FAIR      88  75  66 SE5       30.19S HX  97
JOHNS ISLAND   PTSUNNY   86  79  79 E8        30.19F HX  99
PINOPOLIS        N/A     88  75  66 N3        30.14R HX  97
MONCKS CORNER    N/A     88  75  66 CALM      30.18F HX  97
SUMMERVILLE    FAIR      86  72  62 CALM      30.19F HX  92
BEAUFORT MCAS  MOSUNNY   90  70  51 S9        30.18F HX  95
BEAUFORT ARPT  PTSUNNY   88  77  70 E6        30.17F HX 100
HILTON HEAD IS MOSUNNY   88  79  74 NE10      30.19F HX 102
GEORGETOWN     NOT AVBL
WALTERBORO     MOSUNNY   91  63  38 E7        30.19F HX  92
ORANGEBURG     SUNNY     89  66  46 E6        30.19F HX  91
BARNWELL       PTSUNNY   88  72  58 SW3       30.18F HX  94
AIKEN          PTSUNNY   86  73  66 E6        30.22S HX  93
MANNING        PTSUNNY   88  64  45 SE5       30.20S
KINGSTREE      NOT AVBL
COLUMBIA       PTSUNNY   88  70  55 SE8       30.18F HX  93
SUMTER         MOSUNNY   87  69  54 SE5       30.19F HX  91
FLORENCE       MOSUNNY   85  70  60 NW3       30.20F
MYRTLE BEACH   NOT AVBL
N MYRTLE BEACH MOSUNNY   85  75  72 SE9       30.20S HX  93

$$

GAZ063-065-086>088-099>101-113>116-118-119-134-136>141-150-301700-
...GEORGIA...

CITY           SKY/WX    TMP DP  RH WIND       PRES   REMARKS
SAVANNAH ARPT  MOSUNNY   91  72  53 E13G18    30.17F HX  98
HUNTER AAF     PTSUNNY   87  76  70 E12       30.15F HX  97
FORT STEWART   MOSUNNY   91  72  54 E9        30.15F HX  98
STATESBORO     NOT AVBL
SYLVANIA       CLOUDY    85  70  59 CALM      30.18F
CLAXTON        NOT AVBL
THOMSON        CLOUDY    89  79  71 NE5       30.21F HX 105
AUGUSTA-BUSH   MOSUNNY   88  74  63 S7        30.17S HX  96
AUGUSTA-DANIEL MOSUNNY   88  73  61 VRB5      30.19S HX  95
SWAINSBORO     FAIR      91  75  59 SE8       30.17F HX 102
VIDALIA          N/A     90  73  58 E9        30.16F HX  98
ALMA           PTSUNNY   89  74  60 E7        30.16F HX  98
WAYCROSS       PTSUNNY   91  77  64 E6        30.15F HX 104
JESUP            N/A     91  77  62 SE8       30.16F HX 105
BRUNSWICK      CLOUDY    88  73  62 S5        30.16F HX  96
SAINT SIMONS   MOSUNNY   86  75  69 E7        30.16F HX  95

$$

SCZ027-028-034-036>038-045-046-048>050-GAZ119-141-301700-
...LAKE AND SUPPLEMENTAL COASTAL OBSERVATIONS...

STATION/POSITION TIME  TEMP    WIND        PRES    WAVE   SWELL
                       AIR SEA DIR/SP/G            HT/PER HT/PER/DIR
                 (UTC) (F)     (DEG/KT/KT) (MB)    (FT/S) (FT/S/D)
UPR LAKE MARION  NOT AVBL
WINYAH BAY       1500   83     100/  5     1022.0S
LAKE MURRAY      1500   82     220/  2/  3 1021.7F
ACE BASIN NERRS  1500   87     110/  3     1022.0S
FORT PULASKI     1600   83      70/ 12/ 13 1022.2R
SAPELO ISLAND    1500   87     100/  5     1022.0S

$$

ANZ835-935-AMZ111-154-330-350-352-354-374-450-454-472-301700-
...C-MAN AND BUOY OBSERVATIONS...

STATION/POSITION TIME  TEMP    WIND        PRES    WAVE   SWELL
                       AIR SEA DIR/SP/G            HT/PER HT/PER/DIR
                 (UTC) (F)     (DEG/KT/KT) (MB)    (FT/S) (FT/S/D)
FOLLY BEACH CMAN 1500   83      80/  9/ 10 1023.0R
BUOY 41004       1600   82 83   70/  8/ 10 1021.7F   3/ 8   2/ 8
BUOY 41008       1600   81 85  160/  6/ 10 1021.5S   2/ 8   2/110/ 8
5E ST. MARYS GA  1600      86                N/A     2/ 8
FRYING PAN BUOY  NOT AVBL
BUOY 41025       1600   80     150/  8/ 10 1023.2F   3/ 7   3/ 90/ 7
CAPE LOOKOUT NC  1500   81     110/  5/  6 1023.5R
BUOY 41002       1537   81 83  100/  2/  4 1023.7S   4/ 8   3/ 90/ 8
BUOY 41010       1600   83 85  230/  2/  4 1021.4F   3/ 8   3/120/ 8
BUOY 41012       NOT AVBL
ST AUGUSTINE FL  1600   80     110/  7/  8 1021.8F
CAPERS NEARSHORE 1500   83      80/  8/ 10   N/A
FRIPP NEARSHORE  NOT AVBL


$$


USA.gov is the U.S. government's official web portal to all federal, state and local government web resources and services.